Location: Newark
(45.8667°N, 9.7333°E)
Time: 12:57:28
(UTC+00:00)

Vanguard 3 - Pass Details

Date: 27 January 2020
Orbit: 508 x 3263 km, 33.3° (Epoch: 28 February)

Event Time Altitude Azimuth Distance (km) Brightness Sun altitude
Rises 15:33:16 0° 224° (SW) 6,630 13.9 6.0°
Reaches altitude 10° 15:37:45 10° 218° (SW) 5,857 13.2 5.3°
Maximum altitude 15:54:55 42° 156° (SSE) 4,099 10.8 2.8°
Drops below altitude 10° 16:11:09 10° 94° (E) 5,582 10.9 0.3°
Sets 16:15:14 0° 88° (E) 6,310 11.1 -0.3°
